DH3PAE-6 Weather Reports


Display with metric or nautical units.
time (UTC)temp
F
wind
direction
speed
MPH
gust
MPH
rain 1hr
in
rain 24hr
in
rain mn
in
humidity
%
barometer
mb
20260506050540 47 270 3.0 5.0 0.02 0.60 0.15 98 1003.9
20260506044517 48 315 2.0 2.0 0.02 0.59 0.14 98 1003.8
20260506043517 48 315 2.0 4.0 0.01 0.58 0.13 98 1003.8
20260506042600 48 315 1.0 1.0 0.00 0.57 0.13 98 1004.0
20260506041537 48 0.0 2.0 0.00 0.57 0.13 98 1004.0
20260506040517 48 270 1.0 2.0 0.00 0.57 0.13 98 1004.0
20260506035540 48 293 2.0 3.0 0.01 0.57 0.13 98 1004.1
20260506034517 48 293 1.0 1.0 0.02 0.57 0.13 98 1004.0
20260506033517 48 0.0 1.0 0.02 0.57 0.13 98 1004.1
20260506032605 48 315 1.0 2.0 0.03 0.57 0.13 98 1004.1
20260506031517 48 270 1.0 3.0 0.04 0.57 0.13 98 1004.0
20260506030517 48 315 1.0 2.0 0.06 0.57 0.13 98 1004.1
20260506025520 48 0.0 0.0 0.06 0.57 0.12 98 1004.3
20260506024517 48 248 1.0 2.0 0.06 0.56 0.11 98 1004.4
20260506023540 48 315 1.0 2.0 0.06 0.55 0.10 98 1004.4
20260506022517 48 0.0 1.0 0.05 0.54 0.09 98 1004.8
20260506021540 48 0.0 1.0 0.05 0.54 0.09 98 1004.8
20260506020540 48 293 1.0 2.0 0.05 0.52 0.07 98 1004.9
20260506015517 48 248 1.0 2.0 0.04 0.51 0.06 98 1004.9
20260506014537 48 315 2.0 4.0 0.04 0.50 0.06 98 1005.1
20260506013520 48 315 2.0 4.0 0.03 0.50 0.05 98 1005.2
20260506012537 48 315 1.0 2.0 0.03 0.50 0.05 98 1005.3
20260506011517 48 270 1.0 3.0 0.02 0.49 0.04 98 1005.3
20260506010517 48 248 1.0 3.0 0.01 0.47 0.02 98 1005.4
20260506005537 48 293 1.0 3.0 0.01 0.47 0.02 98 1005.3
20260506004517 48 0.0 2.0 0.00 0.46 0.02 98 1005.2
20260506003540 48 293 2.0 4.0 0.00 0.46 0.02 98 1005.3
20260506002520 48 293 3.0 5.0 0.00 0.46 0.02 98 1005.4
20260506001517 48 270 1.0 4.0 0.00 0.46 0.02 98 1005.5
20260506000517 48 315 2.0 3.0 0.00 0.46 0.02 98 1005.6
20260505235540 48 270 2.0 3.0 0.00 0.46 0.02 98 1005.7
20260505234517 48 248 1.0 4.0 0.01 0.46 0.02 98 1005.8
20260505233520 48 315 2.0 3.0 0.01 0.46 0.02 98 1005.8
20260505232516 48 248 2.0 5.0 0.01 0.46 0.02 98 1005.8
20260505231537 49 293 2.0 3.0 0.02 0.46 0.02 97 1005.8
20260505230517 48 225 2.0 8.0 0.02 0.46 0.02 97 1006.0
20260505225517 49 315 2.0 4.0 0.02 0.46 0.02 97 1006.0
20260505224537 49 270 2.0 5.0 0.01 0.46 0.01 97 1006.1
20260505223517 49 270 1.0 2.0 0.02 0.46 0.01 97 1006.0
20260505222517 49 293 2.0 3.0 0.02 0.46 0.01 97 1006.0
20260505221524 49 248 1.0 7.0 0.01 0.45 0.00 97 1006.1
20260505220519 49 0 2.0 5.0 0.01 0.45 0.00 97 1006.1
20260505215516 49 270 2.0 3.0 0.01 0.45 0.45 97 1006.2
20260505214516 49 338 2.0 4.0 0.01 0.45 0.45 97 1006.3
20260505213517 49 270 2.0 5.0 0.00 0.44 0.44 97 1006.4
20260505212516 49 315 3.0 5.0 0.00 0.44 0.44 97 1006.4
20260505211516 49 248 1.0 2.0 0.01 0.44 0.44 97 1006.5
20260505210516 49 270 1.0 2.0 0.01 0.44 0.44 97 1006.6
20260505205519 49 270 3.0 5.0 0.01 0.44 0.44 97 1006.6
20260505204519 49 225 2.0 2.0 0.02 0.44 0.44 97 1006.6
20260505203516 49 203 3.0 5.0 0.02 0.44 0.44 97 1006.6
20260505202521 50 270 3.0 7.0 0.02 0.44 0.44 97 1006.6
20260505201519 50 315 3.0 7.0 0.02 0.43 0.43 97 1006.6
20260505200516 50 315 1.0 3.0 0.02 0.43 0.43 97 1006.4
20260505195516 50 315 2.0 4.0 0.02 0.43 0.43 97 1006.4
20260505194519 50 315 2.0 4.0 0.02 0.43 0.43 97 1006.3
20260505193516 50 293 2.0 3.0 0.03 0.43 0.43 97 1006.3
20260505192539 50 315 1.0 2.0 0.04 0.43 0.43 97 1006.2
20260505191640 50 293 2.0 4.0 0.03 0.43 0.42 97 1006.1
20260505190516 51 315 2.0 4.0 0.03 0.42 0.41 97 1006.1
20260505185516 51 315 2.0 4.0 0.04 0.42 0.41 97 1006.1
20260505184539 51 315 1.0 2.0 0.04 0.41 0.40 97 1006.1
20260505183519 51 315 1.0 3.0 0.04 0.40 0.39 97 1006.1
20260505182559 51 0 2.0 3.0 0.04 0.39 0.39 97 1006.1
20260505181516 51 338 2.0 4.0 0.06 0.39 0.39 97 1006.0
20260505180516 52 315 2.0 3.0 0.07 0.39 0.38 97 1006.0
20260505175516 52 225 2.0 3.0 0.09 0.38 0.37 97 1006.0
20260505174519 52 315 2.0 4.0 0.09 0.37 0.36 96 1006.1
20260505173517 52 315 3.0 6.0 0.09 0.36 0.35 97 1006.1
20260505172536 52 315 3.0 4.0 0.09 0.35 0.35 96 1006.1
20260505170536 53 315 4.0 5.0 0.09 0.31 0.31 97 1006.0
20260505165516 53 315 3.0 8.0 0.07 0.30 0.28 96 1006.0
20260505164516 53 315 2.0 4.0 0.08 0.29 0.28 96 1006.1
20260505163539 53 270 2.0 4.0 0.09 0.28 0.26 96 1006.1
20260505162516 53 293 3.0 6.0 0.10 0.28 0.25 96 1006.1
20260505161519 54 338 2.0 4.0 0.10 0.28 0.24 96 1006.1
20260505160516 54 315 2.0 3.0 0.10 0.26 0.22 96 1006.3
20260505152516 55 270 2.0 4.0 0.15 0.20 0.15 95 1006.5
20260505151519 55 315 1.0 2.0 0.13 0.19 0.13 95 1006.5
20260505150516 55 315 3.0 4.0 0.12 0.17 0.12 94 1006.6
20260505140516 58 293 4.0 8.0 0.00 0.06 0.00 87 1006.6
20260505124916 60 338 1.0 2.0 0.00 0.06 0.00 84 1007.3
20260505123939 59 338 4.0 6.0 0.00 0.06 0.00 82 1007.4
20260505122919 59 315 2.0 3.0 0.00 0.09 0.00 82 1007.5
20260505121936 59 338 3.0 5.0 0.00 0.11 0.00 83 1007.5
20260505120936 59 158 1.0 2.0 0.00 0.11 0.00 85 1007.5
20260505115905 59 0 3.0 6.0 0.00 0.11 0.00 83 1007.5
20260505115516 59 338 3.0 5.0 0.00 0.11 0.00 84 1007.5
20260505114516 58 315 3.0 5.0 0.00 0.11 0.00 84 1007.7
20260505113516 59 0 2.0 3.0 0.00 0.11 0.00 85 1007.9
20260505112503 59 293 1.0 2.0 0.00 0.11 0.00 83 1007.9
20260505112219 59 315 3.0 4.0 0.00 0.11 0.00 83 1007.9
20260505111516 60 315 2.0 3.0 0.00 0.11 0.00 85 1007.9
20260505111319 59 23 3.0 5.0 0.00 0.11 0.00 86 1007.9
20260505110319 58 23 2.0 3.0 0.00 0.11 0.00 86 1007.9
20260505101259 57 338 2.0 3.0 0.00 0.11 0.00 89 1008.2
20260505101019 57 315 2.0 3.0 0.00 0.11 0.00 89 1008.2
20260505100015 57 338 3.0 3.0 0.00 0.11 0.00 88 1008.2
20260505095016 57 338 3.0 4.0 0.00 0.11 0.00 87 1008.1
20260505094016 58 293 1.0 4.0 0.00 0.11 0.00 85 1008.3
20260505093016 58 180 2.0 3.0 0.00 0.11 0.00 83 1008.4
20260505092038 58 68 1.0 2.0 0.00 0.11 0.00 81 1008.4
20260505091035 58 68 1.0 2.0 0.00 0.11 0.00 83 1008.3
20260505090018 57 0.0 0.0 0.00 0.11 0.00 83 1008.4
20260505085016 58 90 1.0 1.0 0.00 0.11 0.00 85 1008.4
20260505084018 57 158 2.0 2.0 0.00 0.11 0.00 85 1008.4
20260505083019 57 225 2.0 3.0 0.00 0.11 0.00 85 1008.5
20260505082015 57 270 1.0 1.0 0.00 0.11 0.00 85 1008.6
20260505081015 56 270 1.0 2.0 0.00 0.11 0.00 87 1008.6
20260505080016 56 180 2.0 4.0 0.00 0.11 0.00 87 1008.7
20260505075036 56 158 1.0 2.0 0.00 0.11 0.00 86 1008.7
20260505074017 56 0.0 2.0 0.00 0.11 0.00 89 1008.7
20260505073021 56 180 2.0 3.0 0.00 0.11 0.00 88 1008.7
20260505072017 56 248 2.0 2.0 0.00 0.11 0.00 89 1008.7
20260505071040 56 180 1.0 2.0 0.00 0.11 0.00 91 1008.8
20260505070037 55 180 1.0 2.0 0.00 0.11 0.00 91 1009.0
20260505065038 55 248 2.0 3.0 0.00 0.11 0.00 92 1009.0
20260505064017 55 248 2.0 2.0 0.00 0.11 0.00 92 1009.1
20260505063038 55 0.0 0.0 0.00 0.11 0.00 93 1009.0
20260505062020 54 0.0 0.0 0.00 0.11 0.00 94 1009.0
20260505061017 53 0.0 0.0 0.00 0.11 0.00 94 1008.9
20260505060020 53 0.0 0.0 0.00 0.11 0.00 95 1008.9
20260505055020 53 0.0 1.0 0.00 0.11 0.00 95 1008.9